Wind_Speed
33 33 33 32 32 32 32 32 32 32 32 31 30 30 31 30 30 30 30 30 29 28 27 27 26 26 26 26 25 25 25 24 23 23 23 24 23 23 23 23 23 23 22
35 35 35 34 33 33 33 33 33 33 33 32 32 31 32 32 32 32 32 32 32 31 30 29 29 28 28 27 27 27 27 27 26 26 26 26 26 25 25 25 25 25 24
36 36 36 35 35 34 34 34 34 33 33 33 33 33 33 33 33 33 33 33 33 33 32 32 31 31 30 30 30 30 29 29 29 29 28 28 28 28 27 27 27 27 27
37 36 36 37 36 35 35 35 35 34 35 34 34 34 35 35 34 34 35 35 35 35 34 34 34 33 33 33 33 32 32 32 31 31 30 30 30 30 30 30 29 29 29
37 37 37 37 37 37 37 36 36 36 36 35 36 36 36 37 37 37 36 36 37 37 37 37 36 36 36 36 35 35 34 34 34 33 33 32 32 32 32 32 32 32 32
38 38 38 38 38 38 37 37 37 37 36 36 35 37 37 39 39 38 38 38 38 39 39 39 38 38 38 38 38 38 37 37 36 36 35 35 35 35 35 35 35 34 35
38 38 38 38 38 38 38 38 38 38 38 38 37 38 38 39 40 40 40 40 40 40 40 40 40 39 39 39 39 39 40 40 39 38 38 38 38 37 37 37 37 37 37
36 37 38 38 38 39 39 39 39 40 39 39 39 39 39 39 40 40 40 41 41 41 41 41 41 41 40 40 40 40 41 41 41 41 40 40 40 40 40 39 40 40 40
37 37 38 38 39 39 39 39 39 40 40 40 40 41 41 41 41 42 42 42 42 42 43 43 43 43 42 42 42 42 42 41 41 42 42 42 42 42 42 42 42 42 42
37 37 37 38 39 39 40 39 39 39 39 39 39 40 41 42 42 42 42 43 44 45 45 45 45 45 44 44 44 44 43 43 43 43 44 44 44 43 44 43 44 44 43
38 37 37 38 38 39 39 39 39 39 40 40 40 40 40 41 42 42 43 43 44 45 46 46 46 46 45 45 45 45 46 45 45 45 45 45 45 45 46 46 46 47 46
37 37 37 39 39 39 39 40 40 40 41 40 41 41 41 42 43 43 43 43 44 45 45 46 46 46 47 47 47 47 47 47 47 47 47 48 47 47 47 47 47 48 46
36 37 38 39 40 40 40 41 42 42 42 41 42 42 42 42 42 43 44 45 45 45 45 45 46 47 48 49 49 49 50 49 49 49 48 48 48 48 48 49 48 49 48
36 37 39 39 38 39 39 40 41 42 42 41 42 42 43 43 43 43 44 45 46 46 46 46 47 48 49 49 49 50 50 50 50 49 49 50 50 49 49 49 49 50 50
34 36 38 38 38 39 40 41 41 42 43 43 42 42 42 43 44 44 45 46 47 47 47 47 47 48 49 49 50 50 50 50 50 50 50 50 50 50 49 50 50 51 51
35 36 37 38 38 40 41 41 42 42 43 43 43 43 43 43 43 45 46 47 48 48 49 48 48 48 48 48 48 49 50 50 50 49 50 50 49 49 50 50 51 51 52
35 36 36 36 37 38 39 40 41 41 42 43 43 44 44 44 44 45 46 47 47 48 48 48 49 48 48 48 48 49 49 50 51 51 50 50 50 51 51 51 51 51 51
34 35 35 35 36 36 37 39 41 42 42 43 43 43 44 45 45 45 46 47 47 47 48 48 48 49 49 49 49 50 50 51 51 51 51 51 52 53 53 53 52 52 52
34 34 35 35 35 36 37 38 40 42 42 43 43 44 44 44 45 46 46 46 46 46 47 48 48 48 49 50 50 51 50 51 52 52 52 52 52 53 53 54 53 52 53
34 35 36 36 35 36 37 37 38 40 41 42 43 43 44 45 45 46 46 46 46 46 46 46 47 47 48 48 49 50 50 51 52 52 52 52 53 53 53 54 54 54 54
35 35 35 36 36 36 37 38 38 39 41 41 43 44 44 45 46 46 47 47 47 47 46 46 46 46 47 47 48 49 50 51 52 52 52 53 54 54 54 55 55 56 56
35 35 36 36 37 37 38 39 40 40 41 42 43 44 44 45 46 46 46 46 46 46 45 45 45 45 46 47 48 49 49 50 50 51 52 52 53 54 54 54 55 56 56
36 36 37 37 37 38 38 39 41 41 41 42 43 43 44 45 45 45 45 45 46 46 47 46 46 46 46 46 48 49 49 49 49 50 52 52 53 53 53 53 54 55 56
37 37 38 38 38 38 39 39 40 40 40 41 42 43 43 43 44 44 45 45 46 47 47 47 47 47 47 47 47 48 49 49 50 51 52 52 53 53 53 54 53 54 54
38 38 39 39 39 39 39 39 40 39 40 40 41 42 43 43 43 44 45 45 46 46 47 47 47 47 48 49 49 50 50 50 50 51 52 52 52 53 52 52 53 53 54
38 39 39 40 40 39 40 39 40 40 40 40 41 42 43 44 44 44 45 45 46 46 46 47 48 48 48 49 49 50 51 51 52 51 52 52 52 53 53 52 53 53 54
Wind_Direction
244 243 244 246 247 247 248 248 247 245 244 243 242 242 242 242 243 243 243 243 244 245 245 246 247 249 251 251 252 254 255 257 259 261 262 264 266 266 267 269 270 272 274
245 245 245 246 247 247 247 247 246 245 244 244 243 243 243 243 243 244 245 245 246 246 246 247 248 249 251 252 254 255 256 258 259 261 263 264 265 266 267 268 270 271 273
245 245 245 246 247 247 247 246 245 244 245 245 245 244 244 244 244 246 246 246 247 247 248 248 248 250 251 253 254 256 257 259 261 261 262 264 265 266 267 268 269 270 271
246 245 246 246 246 246 246 245 245 243 244 245 245 245 245 244 245 247 248 248 249 249 249 249 250 251 252 253 254 255 257 259 260 261 262 263 265 266 268 269 269 270 271
246 245 246 247 248 248 247 246 245 244 245 245 246 246 247 247 246 247 248 249 250 250 251 251 252 252 253 253 254 255 257 259 259 260 261 263 264 266 268 269 270 271 272
247 246 247 249 249 247 247 248 248 247 247 247 248 248 249 248 247 248 249 250 251 252 252 252 253 253 254 254 254 256 257 258 259 260 261 263 264 266 268 269 269 271 272
249 248 248 249 249 248 248 248 249 248 247 248 250 249 250 250 249 249 250 251 252 252 253 253 254 254 254 255 256 257 258 259 259 260 261 262 264 266 267 268 269 271 272
249 248 249 249 249 249 248 249 250 248 248 250 250 251 252 252 251 252 252 252 252 253 253 254 253 254 254 256 257 258 259 259 260 261 261 262 263 264 266 267 268 270 271
251 252 249 250 250 250 250 249 248 247 249 251 252 253 254 255 254 252 253 253 254 253 254 255 254 254 256 258 258 258 259 260 261 261 262 263 264 264 265 267 268 270 271
253 252 250 251 250 250 250 248 248 248 248 250 252 252 254 255 255 254 254 254 253 254 254 254 254 255 256 258 258 258 259 261 261 262 262 262 263 264 264 266 267 269 271
253 253 252 251 250 249 248 248 248 248 249 250 252 253 254 255 255 255 255 254 254 254 254 254 255 256 256 257 258 259 259 261 261 262 262 263 263 264 264 265 267 269 272
253 253 254 251 250 248 248 248 248 249 250 250 252 253 255 256 255 256 255 255 255 256 255 255 256 256 257 257 258 259 260 261 262 262 263 263 263 264 264 265 267 269 271
253 253 254 251 249 248 248 248 248 250 251 251 252 253 255 256 257 256 256 256 256 256 255 255 256 256 257 258 258 259 260 262 262 262 263 263 263 264 265 265 266 268 270
255 254 252 250 249 248 249 250 250 251 251 251 253 254 255 256 257 257 257 257 257 256 256 257 257 257 258 258 259 259 261 261 262 262 262 263 263 264 264 265 266 268 269
257 255 254 253 251 249 250 252 251 251 251 252 253 255 256 256 257 257 258 258 258 258 258 260 259 259 259 259 259 259 260 261 261 261 262 263 263 263 263 265 266 268 270
256 255 255 254 252 251 250 251 251 252 253 253 254 256 256 257 257 258 258 259 260 260 260 261 260 259 260 260 260 259 260 261 261 262 262 263 263 263 264 265 267 269 270
258 257 254 253 253 252 252 252 251 252 254 254 255 256 258 258 258 259 260 261 262 262 262 262 261 261 261 261 261 260 261 261 261 262 263 263 263 264 264 265 267 269 270
259 257 255 255 255 255 255 255 254 254 255 256 256 257 259 259 260 260 261 262 263 263 263 263 262 262 261 261 262 261 260 261 261 262 262 263 263 264 265 265 267 268 269
260 257 255 257 257 258 258 258 258 257 257 258 259 259 260 261 262 262 263 263 264 264 264 264 263 263 262 262 263 263 261 262 262 262 262 263 263 264 265 265 266 267 268
259 258 258 259 259 259 259 260 259 259 260 260 260 261 262 262 262 263 264 264 265 265 265 265 264 264 264 264 265 264 263 263 262 262 262 263 263 265 266 267 267 268 270
260 259 259 259 260 260 261 260 260 261 261 261 261 261 262 263 263 263 264 264 264 264 265 265 265 265 265 265 266 265 265 264 262 263 263 263 264 265 267 268 269 269 270
260 260 261 261 262 262 262 262 262 263 263 262 263 262 263 263 264 263 263 264 264 264 265 266 267 267 267 267 266 265 265 265 264 263 263 264 264 265 267 267 268 270 271
259 260 261 262 263 263 263 263 263 264 264 263 263 263 264 264 265 263 264 265 265 266 266 267 268 268 268 269 268 266 265 265 266 265 264 265 265 266 266 267 268 270 272
260 261 262 263 264 264 264 265 265 265 265 265 264 265 265 265 265 265 265 266 268 268 268 267 267 267 267 267 268 267 267 266 266 266 266 267 267 267 267 267 269 271 273
262 263 264 264 265 266 267 268 268 268 267 267 267 266 265 265 266 266 267 267 268 269 269 268 267 267 267 267 268 268 267 267 267 267 267 268 268 268 268 268 270 272 274
263 264 265 266 266 267 268 269 269 269 269 269 268 267 267 266 267 268 268 268 269 269 269 268 267 267 267 268 268 268 268 268 268 267 267 268 268 268 268 269 270 271 273
Height
5791 5793 5795 5797 5799 5801 5803 5804 5806 5808 5810 5812 5814 5816 5818 5819 5821 5823 5824 5826 5828 5829 5830 5832 5833 5834 5835 5835 5836 5837 5837 5838 5838 5838 5838 5838 5838 5838 5838 5838 5838 5838 5837
5784 5786 5788 5790 5792 5793 5795 5797 5799 5801 5803 5805 5807 5809 5811 5813 5815 5817 5818 5820 5822 5823 5824 5826 5827 5828 5829 5830 5830 5831 5832 5832 5833 5833 5833 5833 5833 5833 5833 5833 5833 5832 5832
5776 5778 5781 5782 5784 5786 5788 5789 5791 5793 5796 5798 5800 5802 5804 5806 5808 5810 5811 5813 5815 5816 5818 5819 5820 5821 5822 5823 5824 5825 5825 5826 5827 5827 5827 5827 5827 5827 5827 5827 5827 5827 5827
5767 5770 5773 5775 5776 5778 5780 5782 5783 5786 5788 5791 5793 5795 5797 5799 5801 5803 5805 5806 5808 5809 5811 5812 5813 5814 5815 5816 5817 5818 5818 5819 5820 5820 5821 5821 5821 5821 5821 5821 5821 5821 5820
5759 5761 5764 5766 5768 5770 5771 5773 5775 5778 5780 5783 5785 5787 5789 5791 5793 5795 5797 5798 5800 5801 5802 5804 5805 5806 5807 5808 5809 5810 5811 5811 5812 5813 5813 5814 5814 5814 5814 5814 5814 5814 5814
5750 5752 5755 5757 5759 5761 5763 5765 5767 5769 5772 5774 5777 5779 5781 5783 5785 5787 5788 5790 5791 5793 5794 5795 5796 5797 5798 5800 5800 5801 5802 5803 5804 5805 5805 5806 5806 5807 5807 5807 5806 5806 5806
5741 5744 5746 5748 5750 5753 5755 5756 5758 5761 5764 5766 5768 5770 5772 5774 5776 5778 5780 5781 5782 5783 5785 5786 5787 5789 5790 5790 5792 5792 5793 5794 5795 5796 5797 5797 5798 5798 5798 5798 5798 5798 5798
5733 5735 5737 5740 5742 5744 5746 5748 5750 5753 5755 5757 5759 5761 5763 5765 5767 5769 5770 5771 5773 5774 5775 5776 5778 5779 5780 5781 5782 5783 5784 5784 5785 5786 5787 5788 5789 5789 5789 5789 5789 5789 5789
5725 5726 5729 5731 5733 5735 5737 5739 5741 5743 5745 5747 5749 5751 5753 5755 5757 5759 5760 5761 5762 5764 5765 5767 5768 5769 5770 5772 5772 5773 5774 5774 5775 5776 5777 5778 5778 5779 5780 5780 5780 5779 5779
5715 5717 5720 5721 5723 5725 5727 5729 5731 5733 5735 5738 5739 5741 5743 5744 5746 5748 5750 5751 5752 5754 5755 5756 5757 5758 5760 5761 5762 5763 5764 5765 5765 5766 5767 5767 5768 5769 5769 5769 5769 5769 5768
5706 5708 5710 5712 5713 5715 5717 5719 5722 5724 5726 5728 5730 5731 5733 5734 5735 5737 5739 5740 5741 5742 5744 5745 5746 5748 5749 5750 5751 5752 5753 5754 5754 5755 5755 5756 5757 5758 5758 5759 5759 5758 5758
5697 5699 5700 5702 5704 5705 5707 5710 5712 5714 5716 5718 5720 5721 5723 5724 5725 5726 5727 5729 5730 5731 5732 5734 5735 5736 5738 5739 5740 5741 5742 5742 5743 5743 5744 5745 5746 5746 5747 5747 5747 5747 5747
5688 5689 5690 5692 5694 5696 5698 5700 5702 5704 5706 5708 5710 5711 5712 5713 5714 5715 5716 5717 5719 5720 5721 5722 5723 5725 5726 5727 5728 5728 5729 5730 5730 5731 5732 5733 5733 5734 5735 5736 5736 5735 5735
5678 5679 5680 5682 5684 5686 5687 5690 5692 5694 5696 5698 5699 5700 5701 5702 5703 5704 5705 5706 5707 5708 5709 5711 5711 5712 5713 5714 5715 5716 5717 5717 5718 5719 5719 5720 5721 5722 5723 5723 5724 5723 5723
5668 5669 5671 5672 5674 5675 5678 5679 5682 5684 5685 5687 5688 5689 5690 5691 5692 5692 5693 5694 5696 5697 5698 5699 5700 5700 5701 5702 5703 5704 5704 5705 5705 5706 5707 5708 5708 5709 5710 5711 5711 5710 5710
5659 5660 5661 5662 5664 5665 5667 5669 5671 5673 5674 5676 5677 5678 5679 5679 5680 5681 5682 5682 5683 5684 5686 5687 5687 5687 5688 5689 5689 5690 5691 5692 5693 5694 5694 5695 5695 5696 5697 5697 5698 5697 5697
5649 5650 5652 5653 5654 5655 5657 5658 5660 5662 5663 5664 5665 5666 5667 5667 5668 5669 5669 5670 5671 5671 5672 5673 5674 5674 5675 5676 5676 5677 5678 5679 5680 5681 5682 5682 5683 5683 5684 5684 5684 5684 5684
5640 5641 5642 5643 5645 5646 5647 5648 5649 5650 5651 5652 5653 5654 5655 5655 5656 5657 5657 5657 5658 5658 5659 5660 5660 5661 5661 5662 5663 5664 5665 5666 5667 5668 5668 5669 5670 5670 5670 5671 5671 5671 5671
5630 5631 5632 5634 5635 5636 5637 5638 5638 5640 5640 5641 5641 5642 5643 5643 5644 5644 5645 5645 5645 5645 5646 5646 5647 5647 5647 5648 5649 5650 5651 5652 5653 5654 5655 5655 5656 5656 5657 5657 5658 5658 5658
5621 5622 5623 5624 5625 5625 5626 5627 5627 5628 5629 5629 5630 5630 5631 5631 5632 5632 5632 5632 5632 5633 5633 5633 5633 5634 5634 5635 5635 5636 5637 5638 5639 5640 5641 5641 5642 5642 5643 5644 5645 5645 5644
5611 5612 5613 5614 5614 5615 5615 5616 5616 5617 5618 5618 5618 5618 5619 5619 5619 5619 5620 5620 5620 5620 5620 5620 5620 5620 5621 5622 5622 5622 5622 5623 5624 5625 5626 5628 5628 5629 5629 5629 5630 5629 5629
5601 5602 5603 5604 5604 5604 5604 5605 5605 5606 5606 5606 5607 5607 5607 5607 5606 5607 5607 5606 5607 5607 5607 5607 5607 5607 5608 5608 5608 5608 5608 5609 5611 5612 5612 5613 5613 5614 5614 5614 5614 5614 5614
5591 5592 5593 5593 5593 5594 5593 5593 5594 5594 5594 5594 5594 5594 5594 5594 5594 5594 5594 5594 5594 5594 5595 5595 5595 5595 5595 5595 5594 5594 5594 5595 5596 5596 5596 5598 5598 5599 5599 5599 5599 5599 5598
5580 5581 5582 5582 5582 5582 5582 5582 5582 5581 5581 5581 5581 5581 5582 5581 5581 5581 5581 5582 5582 5582 5582 5582 5582 5582 5581 5580 5580 5580 5580 5581 5582 5582 5582 5584 5585 5585 5584 5584 5584 5583 5582
5569 5570 5570 5570 5571 5571 5570 5570 5569 5569 5569 5569 5569 5569 5569 5569 5569 5569 5569 5569 5569 5569 5568 5568 5568 5567 5567 5567 5567 5567 5567 5567 5569 5569 5567 5568 5570 5569 5570 5570 5569 5567 5567
5558 5558 5559 5559 5559 5559 5558 5558 5557 5557 5557 5557 5557 5557 5557 5557 5556 5556 5556 5556 5556 5556 5555 5555 5554 5554 5554 5553 5553 5553 5553 5553 5553 5554 5554 5554 5554 5554 5556 5556 5555 5553 5551